• In Netherlands
  • List of Countries
  • For 7 days
  • Water Temperature
  • Satellite Maps
  • Weather Map
  • Weather Widgets
  • user-avatar
    Login

    Hourly Weather Vidin

    Today, 24 August, Thursday

    Time Temperature Precipitation Wind Pressure Humidity
    00:00 +17°C° 0 mm 2 mps 761 mmHg 57%
    01:00 +16°C° 0 mm 2 mps 761 mmHg 58%
    02:00 +16°C° 0 mm 2 mps 762 mmHg 59%
    03:00 +16°C° 0 mm 2 mps 762 mmHg 60%
    04:00 +15°C° 0 mm 2 mps 762 mmHg 61%
    05:00 +15°C° 0 mm 2 mps 762 mmHg 63%
    06:00 +17°C° 0 mm 2 mps 762 mmHg 58%
    07:00 +18°C° 0 mm 2 mps 762 mmHg 52%
    08:00 +21°C° 0 mm 1 mps 762 mmHg 47%
    09:00 +23°C° 0 mm 2 mps 762 mmHg 41%
    10:00 +25°C° 0 mm 2 mps 762 mmHg 35%
    11:00 +28°C° 0 mm 3 mps 762 mmHg 28%
    12:00 +29°C° 0 mm 3 mps 762 mmHg 26%
    13:00 +30°C° 0 mm 3 mps 762 mmHg 23%
    14:00 +31°C° 0 mm 3 mps 762 mmHg 20%
    15:00 +31°C° 0 mm 3 mps 761 mmHg 20%
    16:00 +31°C° 0 mm 3 mps 761 mmHg 20%
    17:00 +31°C° 0 mm 3 mps 761 mmHg 20%
    18:00 +28°C° 0 mm 3 mps 761 mmHg 27%
    19:00 +26°C° 0 mm 2 mps 762 mmHg 33%
    20:00 +23°C° 0 mm 2 mps 762 mmHg 39%
    21:00 +21°C° 0 mm 2 mps 762 mmHg 42%
    22:00 +20°C° 0 mm 2 mps 763 mmHg 45%
    23:00 +20°C° 0 mm 1 mps 763 mmHg 47%

    Tomorrow, 25 August, Friday

    Time Temperature Precipitation Wind Pressure Humidity
    00:00 +20°C° 0 mm 1 mps 763 mmHg 48%
    01:00 +19°C° 0 mm 1 mps 763 mmHg 49%
    02:00 +19°C° 0 mm 1 mps 763 mmHg 50%
    03:00 +18°C° 0 mm 1 mps 763 mmHg 51%
    04:00 +18°C° 0 mm 1 mps 763 mmHg 52%
    05:00 +16°C° 0 mm 1 mps 763 mmHg 52%
    06:00 +19°C° 0 mm 1 mps 763 mmHg 48%
    07:00 +21°C° 0 mm 1 mps 763 mmHg 44%
    08:00 +22°C° 0 mm 1 mps 764 mmHg 40%
    09:00 +25°C° 0 mm 1 mps 763 mmHg 36%
    10:00 +27°C° 0 mm 1 mps 763 mmHg 31%
    11:00 +29°C° 0 mm 1 mps 763 mmHg 27%
    12:00 +31°C° 0 mm 1 mps 763 mmHg 24%
    13:00 +32°C° 0 mm 2 mps 762 mmHg 22%
    14:00 +34°C° 0 mm 2 mps 762 mmHg 19%
    15:00 +34°C° 0 mm 2 mps 762 mmHg 19%
    16:00 +34°C° 0 mm 2 mps 761 mmHg 19%
    17:00 +34°C° 0 mm 2 mps 761 mmHg 18%
    18:00 +30°C° 0 mm 2 mps 761 mmHg 22%
    19:00 +28°C° 0 mm 1 mps 761 mmHg 26%
    20:00 +25°C° 0 mm 1 mps 762 mmHg 29%
    21:00 +24°C° 0 mm 1 mps 762 mmHg 30%
    22:00 +24°C° 0 mm 1 mps 762 mmHg 32%
    23:00 +23°C° 0 mm 1 mps 762 mmHg 33%

    Day after tomorrow, 26 August, Saturday

    Time Temperature Precipitation Wind Pressure Humidity
    00:00 +22°C° 0 mm 1 mps 762 mmHg 34%
    01:00 +22°C° 0 mm 1 mps 762 mmHg 35%
    02:00 +21°C° 0 mm 1 mps 762 mmHg 36%
    03:00 +21°C° 0 mm 1 mps 762 mmHg 37%
    04:00 +20°C° 0 mm 1 mps 762 mmHg 38%
    05:00 +20°C° 0 mm 1 mps 762 mmHg 40%
    06:00 +21°C° 0 mm 1 mps 762 mmHg 37%
    07:00 +23°C° 0 mm 1 mps 762 mmHg 35%
    08:00 +25°C° 0 mm 1 mps 762 mmHg 33%
    09:00 +27°C° 0 mm 1 mps 762 mmHg 29%
    10:00 +29°C° 0 mm 1 mps 762 mmHg 25%
    11:00 +32°C° 0 mm 2 mps 761 mmHg 21%
    12:00 +34°C° 0 mm 2 mps 761 mmHg 20%
    13:00 +35°C° 0 mm 3 mps 761 mmHg 18%
    14:00 +36°C° 0 mm 3 mps 760 mmHg 17%
    15:00 +37°C° 0 mm 3 mps 760 mmHg 17%
    16:00 +37°C° 0 mm 3 mps 760 mmHg 17%
    17:00 +37°C° 0 mm 3 mps 759 mmHg 17%
    18:00 +34°C° 0 mm 3 mps 759 mmHg 20%
    19:00 +30°C° 0 mm 2 mps 760 mmHg 24%
    20:00 +27°C° 0 mm 2 mps 760 mmHg 27%
    21:00 +26°C° 0 mm 2 mps 760 mmHg 29%
    22:00 +25°C° 0 mm 1 mps 760 mmHg 31%
    23:00 +24°C° 0 mm 1 mps 760 mmHg 32%

    27 August, Sunday

    Time Temperature Precipitation Wind Pressure Humidity
    00:00 +24°C° 0 mm 1 mps 760 mmHg 34%
    01:00 +23°C° 0 mm 1 mps 760 mmHg 35%
    02:00 +23°C° 0 mm 1 mps 760 mmHg 37%
    03:00 +22°C° 0 mm 1 mps 760 mmHg 38%
    04:00 +22°C° 0 mm 1 mps 760 mmHg 40%
    05:00 +21°C° 0 mm 1 mps 760 mmHg 41%
    06:00 +23°C° 0 mm 1 mps 760 mmHg 39%
    07:00 +24°C° 0 mm 1 mps 760 mmHg 36%
    08:00 +26°C° 0 mm 1 mps 760 mmHg 34%
    09:00 +28°C° 0 mm 1 mps 760 mmHg 30%
    10:00 +31°C° 0 mm 1 mps 760 mmHg 26%
    11:00 +34°C° 0 mm 2 mps 760 mmHg 23%
    12:00 +35°C° 0 mm 2 mps 759 mmHg 21%
    13:00 +37°C° 0 mm 2 mps 759 mmHg 19%
    14:00 +38°C° 0 mm 3 mps 758 mmHg 17%
    15:00 +38°C° 0 mm 3 mps 758 mmHg 17%
    16:00 +38°C° 0 mm 3 mps 758 mmHg 17%
    17:00 +38°C° 0 mm 3 mps 758 mmHg 17%
    18:00 +35°C° 0 mm 2 mps 758 mmHg 21%
    19:00 +31°C° 0 mm 2 mps 758 mmHg 24%
    20:00 +29°C° 0 mm 1 mps 758 mmHg 28%
    21:00 +28°C° 0 mm 1 mps 758 mmHg 29%
    22:00 +27°C° 0 mm 1 mps 759 mmHg 31%
    23:00 +26°C° 0 mm 1 mps 759 mmHg 32%

    28 August, Monday

    Time Temperature Precipitation Wind Pressure Humidity
    00:00 +25°C° 0 mm 1 mps 759 mmHg 33%
    01:00 +25°C° 0 mm 1 mps 758 mmHg 35%
    02:00 +24°C° 0 mm 1 mps 758 mmHg 36%
    03:00 +24°C° 0 mm 1 mps 758 mmHg 37%
    04:00 +23°C° 0 mm 1 mps 758 mmHg 39%
    05:00 +23°C° 0 mm 1 mps 758 mmHg 41%
    06:00 +24°C° 0 mm 1 mps 758 mmHg 38%
    07:00 +26°C° 0 mm 1 mps 759 mmHg 36%
    08:00 +27°C° 0 mm 1 mps 759 mmHg 33%
    09:00 +30°C° 0 mm 1 mps 758 mmHg 30%
    10:00 +32°C° 0 mm 1 mps 758 mmHg 26%
    11:00 +35°C° 0 mm 1 mps 758 mmHg 22%
    12:00 +36°C° 0 mm 1 mps 757 mmHg 20%
    13:00 +38°C° 0 mm 2 mps 757 mmHg 19%
    14:00 +39°C° 0 mm 2 mps 756 mmHg 18%
    15:00 +39°C° 0 mm 2 mps 756 mmHg 18%
    16:00 +39°C° 0 mm 2 mps 756 mmHg 18%
    17:00 +39°C° 0 mm 2 mps 756 mmHg 18%
    18:00 +35°C° 0 mm 1 mps 756 mmHg 21%
    19:00 +32°C° 0 mm 1 mps 756 mmHg 25%
    20:00 +30°C° 0 mm 1 mps 757 mmHg 28%
    21:00 +29°C° 0 mm 1 mps 757 mmHg 30%
    22:00 +28°C° 0 mm 1 mps 757 mmHg 32%
    23:00 +27°C° 0 mm 1 mps 757 mmHg 33%

    29 August, Tuesday

    Time Temperature Precipitation Wind Pressure Humidity
    00:00 +27°C° 0.1 mm 1 mps 757 mmHg 36%
    01:00 +26°C° 0.1 mm 1 mps 757 mmHg 38%
    02:00 +25°C° 0.1 mm 1 mps 757 mmHg 40%
    03:00 +25°C° 0 mm 1 mps 757 mmHg 41%
    04:00 +25°C° 0 mm 1 mps 757 mmHg 42%
    05:00 +24°C° 0 mm 2 mps 757 mmHg 43%
    06:00 +26°C° 0 mm 2 mps 757 mmHg 41%
    07:00 +27°C° 0 mm 2 mps 757 mmHg 38%
    08:00 +29°C° 0 mm 2 mps 758 mmHg 35%
    09:00 +31°C° 0 mm 2 mps 758 mmHg 32%
    10:00 +35°C° 0 mm 3 mps 758 mmHg 28%
    11:00 +37°C° 0 mm 4 mps 757 mmHg 24%
    12:00 +38°C° 0 mm 4 mps 757 mmHg 22%
    13:00 +39°C° 0 mm 5 mps 757 mmHg 21%
    14:00 +40°C° 0 mm 5 mps 756 mmHg 19%
    15:00 +40°C° 0 mm 5 mps 756 mmHg 20%
    16:00 +39°C° 0 mm 5 mps 756 mmHg 20%
    17:00 +39°C° 0 mm 5 mps 756 mmHg 21%
    18:00 +35°C° 0 mm 4 mps 756 mmHg 26%
    19:00 +33°C° 0 mm 4 mps 757 mmHg 31%
    20:00 +29°C° 0 mm 3 mps 757 mmHg 36%
    21:00 +28°C° 0 mm 3 mps 757 mmHg 39%
    22:00 +27°C° 0 mm 3 mps 758 mmHg 41%
    23:00 +26°C° 0 mm 3 mps 758 mmHg 44%
    Show more